K4HG-2 Weather Reports


Display with metric or nautical units.
time (UTC)temp
F
wind
direction
speed
MPH
gust
MPH
rain 1hr
in
rain 24hr
in
rain mn
in
humidity
%
barometer
mb
20170227031816 76 122 6.0 16.0 0.00 0.00 0.00 100 1020.7
20170227031516 76 104 7.0 14.0 0.00 0.00 0.00 100 1020.7
20170227031215 76 91 3.0 14.0 0.00 0.00 0.00 100 1020.7
20170227030916 76 142 6.0 9.0 0.00 0.00 0.00 100 1020.7
20170227030615 76 92 3.0 9.0 0.00 0.00 0.00 100 1020.7
20170227030316 76 122 6.0 9.0 0.00 0.00 0.00 100 1020.7
20170227030015 76 129 3.0 10.0 0.00 0.00 0.00 100 1020.7
20170227025716 76 70 0.0 10.0 0.00 0.00 0.00 100 1020.7
20170227025416 76 33 4.0 13.0 0.00 0.00 0.00 100 1020.7
20170227025115 76 95 7.0 15.0 0.00 0.00 0.00 100 1020.7
20170227024816 76 113 6.0 15.0 0.00 0.00 0.00 100 1020.6
20170227024515 76 106 10.0 11.0 0.00 0.00 0.00 100 1020.6
20170227024216 76 111 7.0 11.0 0.00 0.00 0.00 100 1020.6
20170227023916 76 90 0.0 12.0 0.00 0.00 0.00 100 1020.7
20170227023615 76 125 7.0 9.0 0.00 0.00 0.00 100 1020.6
20170227023316 76 139 3.0 9.0 0.00 0.00 0.00 100 1020.7
20170227023016 76 129 8.0 10.0 0.00 0.00 0.00 100 1020.7
20170227022716 76 106 3.0 10.0 0.00 0.00 0.00 100 1020.7
20170227022416 76 115 10.0 10.0 0.00 0.00 0.00 100 1020.6
20170227022116 76 167 7.0 12.0 0.00 0.00 0.00 100 1020.7
20170227021815 76 101 6.0 12.0 0.00 0.00 0.00 100 1020.7
20170227021516 76 119 5.0 9.0 0.00 0.00 0.00 100 1020.6
20170227021215 76 106 8.0 9.0 0.00 0.00 0.00 100 1020.7
20170227020916 76 102 7.0 12.0 0.00 0.00 0.00 100 1020.7
20170227020615 76 82 12.0 13.0 0.00 0.00 0.00 100 1020.7
20170227020316 76 111 4.0 13.0 0.00 0.00 0.00 100 1020.7
20170227020015 76 119 3.0 11.0 0.00 0.00 0.00 100 1020.7
20170227015716 76 108 8.0 11.0 0.00 0.00 0.00 100 1020.7
20170227015416 76 102 3.0 12.0 0.00 0.00 0.00 100 1020.7
20170227015115 76 126 3.0 11.0 0.00 0.00 0.00 100 1020.7
20170227014816 76 129 3.0 11.0 0.00 0.00 0.00 100 1020.7
20170227014516 76 105 5.0 9.0 0.00 0.00 0.00 100 1020.7
20170227014216 76 99 5.0 9.0 0.00 0.00 0.00 100 1020.7
20170227013916 76 120 7.0 10.0 0.00 0.00 0.00 100 1020.7
20170227013615 76 140 7.0 9.0 0.00 0.00 0.00 100 1020.7
20170227013315 76 120 5.0 9.0 0.00 0.00 0.00 100 1020.7
20170227013016 76 146 4.0 9.0 0.00 0.00 0.00 100 1020.7
20170227012715 76 130 8.0 9.0 0.00 0.00 0.00 100 1020.7
20170227012416 76 125 3.0 8.0 0.00 0.00 0.00 100 1020.6
20170227012115 76 90 2.0 10.0 0.00 0.00 0.00 100 1020.6
20170227011816 76 84 6.0 10.0 0.00 0.00 0.00 100 1020.6
20170227011515 76 99 0.0 8.0 0.00 0.00 0.00 100 1020.5
20170227011216 76 156 5.0 8.0 0.00 0.00 0.00 100 1020.6
20170227010915 76 130 6.0 6.0 0.00 0.00 0.00 100 1020.6
20170227010616 76 108 5.0 3.0 0.00 0.00 0.00 100 1020.5
20170227010315 76 120 3.0 3.0 0.00 0.00 0.00 100 1020.5
20170227010015 76 111 2.0 3.0 0.00 0.00 0.00 100 1020.5
20170227005715 76 57 0.0 3.0 0.00 0.00 0.00 100 1020.5
20170227005416 76 67 0.0 6.0 0.00 0.00 0.00 100 1020.5
20170227005115 76 91 0.0 4.0 0.00 0.00 0.00 100 1020.5
20170227004816 76 82 1.0 4.0 0.00 0.00 0.00 100 1020.5
20170227004516 76 135 4.0 0.0 0.00 0.00 0.00 100 1020.5
20170227004215 76 88 0.0 0.0 0.00 0.00 0.00 100 1020.5
20170227003916 76 88 0.0 2.0 0.00 0.00 0.00 100 1020.5
20170227003615 76 88 0.0 0.0 0.00 0.00 0.00 100 1020.5
20170227003316 77 94 0.0 0.0 0.00 0.00 0.00 99 1020.4
20170227003016 76 66 0.0 2.0 0.00 0.00 0.00 99 1020.4
20170227002716 76 67 0.0 2.0 0.00 0.00 0.00 99 1020.5
20170227002416 76 39 0.0 3.0 0.00 0.00 0.00 99 1020.4
20170227002115 77 77 1.0 3.0 0.00 0.00 0.00 99 1020.4
20170227001815 76 77 1.0 3.0 0.00 0.00 0.00 99 1020.4
20170227001516 77 71 0.0 5.0 0.00 0.00 0.00 99 1020.4
20170227001215 76 19 0.0 5.0 0.00 0.00 0.00 99 1020.4
20170227000915 76 94 1.0 4.0 0.00 0.00 0.00 99 1020.4
20170227000617 76 82 0.0 5.0 0.00 0.00 0.00 98 1020.3
20170227000316 77 53 0.0 5.0 0.00 0.00 0.00 98 1020.3
20170227000016 77 106 4.0 6.0 0.00 0.00 0.00 98 1020.3
20170226235715 77 60 1.0 6.0 0.00 0.00 0.00 97 1020.3
20170226235416 76 109 1.0 5.0 0.00 0.00 0.00 97 1020.2
20170226235115 77 81 2.0 7.0 0.00 0.00 0.00 97 1020.1
20170226234815 77 75 0.0 7.0 0.00 0.00 0.00 97 1020.1
20170226234515 77 111 5.0 9.0 0.00 0.00 0.00 96 1020.1
20170226234216 77 113 2.0 9.0 0.00 0.00 0.00 96 1020.1
20170226233916 77 122 2.0 6.0 0.00 0.00 0.00 96 1020.1
20170226233615 77 104 2.0 9.0 0.00 0.00 0.00 95 1020.1
20170226233315 77 115 3.0 9.0 0.00 0.00 0.00 95 1020.1
20170226233015 77 129 6.0 8.0 0.00 0.00 0.00 94 1020.0
20170226232716 77 116 4.0 8.0 0.00 0.00 0.00 95 1020.0
20170226232416 77 60 0.0 8.0 0.00 0.00 0.00 94 1020.1
20170226232115 77 88 5.0 7.0 0.00 0.00 0.00 93 1020.0
20170226231816 77 142 2.0 7.0 0.00 0.00 0.00 93 1020.0
20170226231516 77 95 1.0 7.0 0.00 0.00 0.00 93 1019.9
20170226231215 77 113 4.0 7.0 0.00 0.00 0.00 92 1019.9
20170226230916 77 116 1.0 8.0 0.00 0.00 0.00 92 1019.9
20170226230615 77 94 3.0 7.0 0.00 0.00 0.00 92 1019.8
20170226230316 77 144 3.0 7.0 0.00 0.00 0.00 92 1019.8
20170226230015 77 101 6.0 8.0 0.00 0.00 0.00 91 1019.8
20170226225715 77 135 2.0 8.0 0.00 0.00 0.00 91 1019.8
20170226225416 78 60 3.0 9.0 0.00 0.00 0.00 91 1019.8
20170226225115 77 95 2.0 8.0 0.00 0.00 0.00 91 1019.7
20170226224816 77 113 2.0 8.0 0.00 0.00 0.00 91 1019.6
20170226224516 78 112 3.0 7.0 0.00 0.00 0.00 91 1019.6
20170226224215 78 129 2.0 7.0 0.00 0.00 0.00 90 1019.6
20170226223915 77 80 1.0 8.0 0.00 0.00 0.00 90 1019.6
20170226223616 78 113 3.0 12.0 0.00 0.00 0.00 90 1019.6
20170226223316 78 71 0.0 12.0 0.00 0.00 0.00 90 1019.6
20170226223016 78 113 2.0 7.0 0.00 0.00 0.00 90 1019.6
20170226222715 77 101 7.0 7.0 0.00 0.00 0.00 90 1019.6
20170226222416 78 108 3.0 8.0 0.00 0.00 0.00 89 1019.5
20170226222115 78 90 4.0 6.0 0.00 0.00 0.00 89 1019.5
20170226221815 78 98 3.0 6.0 0.00 0.00 0.00 89 1019.5
20170226221516 78 30 2.0 7.0 0.00 0.00 0.00 89 1019.5
20170226221215 78 120 1.0 7.0 0.00 0.00 0.00 89 1019.5
20170226220916 78 116 4.0 8.0 0.00 0.00 0.00 89 1019.5
20170226220615 78 136 3.0 6.0 0.00 0.00 0.00 89 1019.5
20170226220316 78 104 2.0 6.0 0.00 0.00 0.00 89 1019.4
20170226220016 78 112 4.0 7.0 0.00 0.00 0.00 89 1019.4
20170226215715 78 104 4.0 7.0 0.00 0.00 0.00 89 1019.4
20170226215415 78 125 6.0 7.0 0.00 0.00 0.00 89 1019.5
20170226215116 78 84 2.0 7.0 0.00 0.00 0.00 88 1019.4
20170226214815 78 97 3.0 7.0 0.00 0.00 0.00 88 1019.4
20170226214516 78 78 2.0 8.0 0.00 0.00 0.00 88 1019.3
20170226214216 78 98 4.0 8.0 0.00 0.00 0.00 88 1019.4
20170226213915 78 109 1.0 8.0 0.00 0.00 0.00 88 1019.3
20170226213616 78 97 1.0 7.0 0.00 0.00 0.00 88 1019.4
20170226213316 78 116 2.0 7.0 0.00 0.00 0.00 87 1019.3
20170226213016 78 67 5.0 8.0 0.00 0.00 0.00 87 1019.3
20170226212715 78 50 2.0 8.0 0.00 0.00 0.00 87 1019.3
20170226212415 78 108 7.0 8.0 0.00 0.00 0.00 87 1019.3
20170226212116 78 47 0.0 9.0 0.00 0.00 0.00 87 1019.3
20170226211816 78 357 2.0 9.0 0.00 0.00 0.00 87 1019.2
20170226211516 78 77 4.0 8.0 0.00 0.00 0.00 87 1019.3
20170226211216 78 47 2.0 8.0 0.00 0.00 0.00 87 1019.2
20170226210915 78 8 4.0 6.0 0.00 0.00 0.00 87 1019.3
20170226210616 78 358 2.0 7.0 0.00 0.00 0.00 86 1019.3
20170226210315 78 99 0.0 7.0 0.00 0.00 0.00 86 1019.3
20170226210016 78 73 5.0 9.0 0.00 0.00 0.00 86 1019.3
20170226205715 78 70 0.0 9.0 0.00 0.00 0.00 85 1019.3
20170226205416 78 358 7.0 10.0 0.00 0.00 0.00 85 1019.2
20170226205115 79 18 3.0 9.0 0.00 0.00 0.00 85 1019.2
20170226204815 79 133 3.0 9.0 0.00 0.00 0.00 85 1019.3
20170226204515 79 108 3.0 8.0 0.00 0.00 0.00 85 1019.2
20170226204215 78 99 4.0 8.0 0.00 0.00 0.00 85 1019.1
20170226203915 78 108 4.0 8.0 0.00 0.00 0.00 85 1019.2
20170226203616 78 37 4.0 9.0 0.00 0.00 0.00 84 1019.2
20170226203316 78 29 0.0 9.0 0.00 0.00 0.00 84 1019.2
20170226203016 78 135 1.0 7.0 0.00 0.00 0.00 84 1019.2
20170226202715 78 95 7.0 7.0 0.00 0.00 0.00 84 1019.2
20170226202415 78 42 2.0 8.0 0.00 0.00 0.00 84 1019.2
20170226202116 78 12 2.0 9.0 0.00 0.00 0.00 83 1019.1
20170226201815 78 37 5.0 9.0 0.00 0.00 0.00 83 1019.1
20170226201516 78 98 3.0 8.0 0.00 0.00 0.00 83 1019.1
20170226201215 78 37 1.0 8.0 0.00 0.00 0.00 83 1019.1
20170226200916 79 264 1.0 7.0 0.00 0.00 0.00 83 1019.1
20170226200615 78 109 5.0 8.0 0.00 0.00 0.00 83 1019.1
20170226200316 78 104 3.0 8.0 0.00 0.00 0.00 83 1019.1
20170226200015 78 37 1.0 10.0 0.00 0.00 0.00 83 1019.1
20170226195715 78 149 3.0 10.0 0.00 0.00 0.00 82 1019.1
20170226195416 78 77 2.0 8.0 0.00 0.00 0.00 83 1019.1
20170226195115 78 98 5.0 9.0 0.00 0.00 0.00 83 1019.1
20170226194816 78 102 5.0 9.0 0.00 0.00 0.00 83 1019.1
20170226194515 78 129 7.0 9.0 0.00 0.00 0.00 83 1019.1
20170226194216 78 109 0.0 9.0 0.00 0.00 0.00 83 1019.2
20170226193916 78 331 5.0 9.0 0.00 0.00 0.00 83 1019.1
20170226193615 78 123 4.0 10.0 0.00 0.00 0.00 82 1019.2
20170226193316 78 87 1.0 10.0 0.00 0.00 0.00 83 1019.2
20170226193015 78 23 0.0 9.0 0.00 0.00 0.00 82 1019.3
20170226192716 78 116 2.0 9.0 0.00 0.00 0.00 83 1019.2
20170226192415 78 108 9.0 5.0 0.00 0.00 0.00 82 1019.2
20170226192115 78 113 1.0 7.0 0.00 0.00 0.00 82 1019.2
20170226191816 78 147 0.0 7.0 0.00 0.00 0.00 82 1019.3
20170226191516 78 14 3.0 8.0 0.00 0.00 0.00 82 1019.2
20170226191216 78 63 4.0 8.0 0.00 0.00 0.00 82 1019.3
20170226190915 78 126 8.0 10.0 0.00 0.00 0.00 82 1019.3
20170226190616 78 119 8.0 10.0 0.00 0.00 0.00 81 1019.4
20170226190315 77 177 6.0 10.0 0.00 0.00 0.00 81 1019.4
20170226190016 78 82 0.0 10.0 0.00 0.00 0.00 81 1019.4
20170226185715 77 136 4.0 10.0 0.00 0.00 0.00 82 1019.3
20170226185416 77 109 5.0 9.0 0.00 0.00 0.00 82 1019.4
20170226185116 77 60 3.0 8.0 0.00 0.00 0.00 82 1019.4
20170226184815 77 67 3.0 8.0 0.00 0.00 0.00 82 1019.4
20170226184516 77 119 4.0 12.0 0.00 0.00 0.00 81 1019.5
20170226184215 77 46 1.0 12.0 0.00 0.00 0.00 81 1019.6
20170226183915 77 105 2.0 9.0 0.00 0.00 0.00 81 1019.6
20170226183616 77 129 3.0 10.0 0.00 0.00 0.00 82 1019.6
20170226183316 77 206 1.0 10.0 0.00 0.00 0.00 82 1019.6
20170226183016 77 108 4.0 10.0 0.00 0.00 0.00 82 1019.6
20170226182715 77 8 3.0 10.0 0.00 0.00 0.00 82 1019.7
20170226182415 77 88 3.0 10.0 0.00 0.00 0.00 82 1019.7
20170226182116 77 75 3.0 9.0 0.00 0.00 0.00 83 1019.7
20170226181815 77 192 0.0 9.0 0.00 0.00 0.00 82 1019.8
20170226181516 77 84 3.0 11.0 0.00 0.00 0.00 82 1019.9
20170226181215 77 120 2.0 11.0 0.00 0.00 0.00 82 1019.9
20170226180916 77 46 1.0 10.0 0.00 0.00 0.00 82 1019.8
20170226180615 77 59 2.0 9.0 0.00 0.00 0.00 82 1019.9
20170226180315 77 53 0.0 9.0 0.00 0.00 0.00 83 1020.0
20170226180015 77 78 3.0 7.0 0.00 0.00 0.00 83 1020.0
20170226175716 77 29 3.0 7.0 0.00 0.00 0.00 83 1020.0
20170226175415 77 14 1.0 8.0 0.00 0.00 0.00 84 1020.0
20170226175116 77 305 0.0 9.0 0.00 0.00 0.00 84 1020.0
20170226174816 77 36 3.0 9.0 0.00 0.00 0.00 84 1020.0
20170226174515 77 82 3.0 8.0 0.00 0.00 0.00 84 1020.1
20170226174215 77 85 2.0 8.0 0.00 0.00 0.00 84 1020.1
20170226173916 77 64 6.0 7.0 0.00 0.00 0.00 84 1020.1
20170226173615 77 126 2.0 8.0 0.00 0.00 0.00 84 1020.1
20170226173316 77 95 3.0 8.0 0.00 0.00 0.00 84 1020.1
20170226173015 77 22 4.0 8.0 0.00 0.00 0.00 83 1020.1
20170226172716 77 97 6.0 8.0 0.00 0.00 0.00 84 1020.2
20170226172415 77 64 3.0 10.0 0.00 0.00 0.00 84 1020.2
20170226172116 77 22 7.0 9.0 0.00 0.00 0.00 84 1020.3
20170226171816 77 151 4.0 9.0 0.00 0.00 0.00 84 1020.3
20170226171515 77 104 2.0 9.0 0.00 0.00 0.00 84 1020.4
20170226171216 77 74 1.0 9.0 0.00 0.00 0.00 84 1020.4
20170226170916 77 26 2.0 6.0 0.00 0.00 0.00 84 1020.4
20170226170615 77 7 4.0 11.0 0.00 0.00 0.00 85 1020.4
20170226170315 76 85 1.0 11.0 0.00 0.00 0.00 85 1020.5
20170226170016 76 333 5.0 11.0 0.00 0.00 0.00 85 1020.5
20170226165715 76 108 9.0 11.0 0.00 0.00 0.00 84 1020.6
20170226165416 76 71 0.0 8.0 0.00 0.00 0.00 85 1020.6
20170226165115 76 77 3.0 8.0 0.00 0.00 0.00 85 1020.6
20170226164816 76 147 2.0 8.0 0.00 0.00 0.00 85 1020.6
20170226164516 76 43 3.0 11.0 0.00 0.00 0.00 85 1020.6
20170226164216 76 63 2.0 11.0 0.00 0.00 0.00 85 1020.6
20170226163915 76 40 2.0 10.0 0.00 0.00 0.00 86 1020.7
20170226163616 76 116 7.0 10.0 0.00 0.00 0.00 86 1020.7
20170226163316 76 88 7.0 10.0 0.00 0.00 0.00 87 1020.7
20170226163015 76 49 4.0 10.0 0.00 0.00 0.00 87 1020.8
20170226162715 76 94 3.0 10.0 0.00 0.00 0.00 87 1020.8
20170226162416 76 115 4.0 8.0 0.00 0.00 0.00 87 1020.9
20170226162116 76 80 0.0 9.0 0.00 0.00 0.00 88 1020.9
20170226161815 76 108 0.0 9.0 0.00 0.00 0.00 88 1020.9
20170226161516 76 74 1.0 8.0 0.00 0.00 0.00 88 1020.8
20170226161215 76 106 3.0 8.0 0.00 0.00 0.00 88 1020.9
20170226160915 75 81 2.0 8.0 0.00 0.00 0.00 88 1020.9
20170226160615 75 53 3.0 10.0 0.00 0.00 0.00 88 1020.9
20170226160315 75 106 6.0 10.0 0.00 0.00 0.00 88 1020.9
20170226160016 75 35 2.0 10.0 0.00 0.00 0.00 87 1020.9
20170226155715 75 358 4.0 10.0 0.00 0.00 0.00 87 1020.9
20170226155416 75 71 5.0 7.0 0.00 0.00 0.00 88 1020.9
20170226155116 75 80 5.0 9.0 0.00 0.00 0.00 88 1020.9
20170226154816 75 35 3.0 9.0 0.00 0.00 0.00 88 1020.9
20170226154516 75 30 5.0 10.0 0.00 0.00 0.00 88 1020.9
20170226154216 75 67 1.0 10.0 0.00 0.00 0.00 88 1020.9
20170226153915 75 74 9.0 9.0 0.00 0.00 0.00 89 1020.9
20170226153616 75 84 4.0 8.0 0.00 0.00 0.00 89 1020.9
20170226153315 75 5 3.0 8.0 0.00 0.00 0.00 91 1020.9
20170226153016 75 104 3.0 9.0 0.00 0.00 0.00 91 1020.9
20170226152715 75 4 3.0 9.0 0.00 0.00 0.00 91 1020.9
20170226152415 75 112 2.0 8.0 0.00 0.00 0.00 91 1020.9
20170226152116 75 30 3.0 8.0 0.00 0.00 0.00 91 1020.9
20170226151816 75 70 0.0 8.0 0.00 0.00 0.00 91 1020.9
20170226151516 75 142 5.0 10.0 0.00 0.00 0.00 91 1020.9
20170226151215 75 119 5.0 10.0 0.00 0.00 0.00 91 1020.9
20170226150915 75 95 3.0 10.0 0.00 0.00 0.00 91 1020.9
20170226150616 75 11 5.0 9.0 0.00 0.00 0.00 91 1020.9
20170226150316 75 87 4.0 9.0 0.00 0.00 0.00 91 1020.8
20170226150015 75 50 5.0 9.0 0.00 0.00 0.00 91 1020.8
20170226145716 75 125 1.0 9.0 0.00 0.00 0.00 92 1020.8
20170226145415 74 61 3.0 9.0 0.00 0.00 0.00 92 1020.8
20170226145116 75 111 0.0 8.0 0.00 0.00 0.00 92 1020.8
20170226144815 75 139 1.0 8.0 0.00 0.00 0.00 92 1020.8
20170226144516 75 139 6.0 10.0 0.00 0.00 0.00 92 1020.8
20170226144216 74 39 1.0 10.0 0.00 0.00 0.00 92 1020.8
20170226143915 74 94 6.0 9.0 0.00 0.00 0.00 92 1020.7
20170226143616 75 142 4.0 11.0 0.00 0.00 0.00 92 1020.8
20170226143315 75 57 3.0 11.0 0.00 0.00 0.00 92 1020.7
20170226143015 74 77 2.0 13.0 0.00 0.00 0.00 92 1020.8
20170226142716 75 54 7.0 13.0 0.00 0.00 0.00 92 1020.7
20170226142416 75 88 1.0 8.0 0.00 0.00 0.00 92 1020.7
20170226142116 75 108 1.0 9.0 0.00 0.00 0.00 92 1020.6
20170226141815 74 94 3.0 9.0 0.00 0.00 0.00 93 1020.6
20170226141516 75 33 1.0 8.0 0.00 0.00 0.00 93 1020.5
20170226141215 75 88 7.0 8.0 0.00 0.00 0.00 93 1020.5
20170226140916 75 32 2.0 10.0 0.00 0.00 0.00 93 1020.4
20170226140616 75 358 3.0 11.0 0.00 0.00 0.00 93 1020.4
20170226140315 74 97 3.0 11.0 0.00 0.00 0.00 93 1020.3
20170226140016 75 120 3.0 11.0 0.00 0.00 0.00 93 1020.2
20170226135715 75 30 3.0 11.0 0.00 0.00 0.00 92 1020.2
20170226135416 75 77 4.0 13.0 0.00 0.00 0.00 92 1020.2
20170226135115 75 59 2.0 9.0 0.00 0.00 0.00 92 1020.1
20170226134816 75 109 7.0 9.0 0.00 0.00 0.00 93 1020.1
20170226134516 75 37 3.0 10.0 0.00 0.00 0.00 93 1020.1
20170226134215 75 70 1.0 10.0 0.00 0.00 0.00 93 1020.0
20170226133916 75 47 1.0 9.0 0.00 0.00 0.00 93 1020.0
20170226133616 75 78 4.0 9.0 0.00 0.00 0.00 93 1019.9
20170226133315 75 115 3.0 9.0 0.00 0.00 0.00 93 1019.9
20170226133016 75 52 6.0 10.0 0.00 0.00 0.00 93 1019.9
20170226132716 75 36 4.0 10.0 0.00 0.00 0.00 93 1019.8
20170226132416 74 135 1.0 11.0 0.00 0.00 0.00 93 1019.7
20170226132116 74 36 3.0 10.0 0.00 0.00 0.00 93 1019.7
20170226131816 74 97 3.0 10.0 0.00 0.00 0.00 94 1019.6
20170226131515 75 19 3.0 9.0 0.00 0.00 0.00 95 1019.6
20170226131216 74 46 4.0 9.0 0.00 0.00 0.00 95 1019.6
20170226130915 74 136 2.0 12.0 0.00 0.00 0.00 97 1019.6
20170226130616 74 54 5.0 8.0 0.00 0.00 0.00 99 1019.5
20170226130315 74 36 3.0 8.0 0.00 0.00 0.00 100 1019.5
20170226130016 74 71 1.0 6.0 0.00 0.00 0.00 100 1019.4
20170226125716 73 358 6.0 6.0 0.00 0.00 0.00 100 1019.4
20170226125416 73 50 1.0 11.0 0.00 0.00 0.00 100 1019.4
20170226125115 73 18 1.0 5.0 0.00 0.00 0.00 100 1019.4
20170226124816 73 74 3.0 5.0 0.00 0.00 0.00 100 1019.4
20170226124515 73 14 0.0 3.0 0.00 0.00 0.00 100 1019.3
20170226124216 72 73 1.0 3.0 0.00 0.00 0.00 100 1019.3
20170226123916 72 80 3.0 4.0 0.00 0.00 0.00 100 1019.2
20170226123615 72 90 0.0 5.0 0.00 0.00 0.00 100 1019.1
20170226123316 72 45 0.0 5.0 0.00 0.00 0.00 100 1019.1
20170226123015 71 115 2.0 5.0 0.00 0.00 0.00 100 1019.1
20170226122715 71 8 0.0 5.0 0.00 0.00 0.00 100 1019.0
20170226122415 71 12 1.0 1.0 0.00 0.00 0.00 100 1019.0
20170226122115 71 87 0.0 1.0 0.00 0.00 0.00 100 1018.9
20170226121816 71 87 0.0 1.0 0.00 0.00 0.00 100 1018.8
20170226121516 71 63 0.0 2.0 0.00 0.00 0.00 100 1018.8
20170226121215 71 85 0.0 2.0 0.00 0.00 0.00 100 1018.7
20170226120915 71 57 0.0 4.0 0.00 0.00 0.00 100 1018.7
20170226120617 71 4 0.0 1.0 0.00 0.00 0.00 100 1018.6
20170226120315 71 77 0.0 1.0 0.00 0.00 0.00 100 1018.5
20170226120016 71 57 0.0 4.0 0.00 0.00 0.00 100 1018.5
20170226115716 71 57 0.0 4.0 0.00 0.00 0.00 100 1018.4
20170226115416 71 35 0.0 4.0 0.00 0.00 0.00 100 1018.4
20170226115116 71 70 0.0 2.0 0.00 0.00 0.00 100 1018.3
20170226114815 71 63 0.0 2.0 0.00 0.00 0.00 100 1018.3
20170226114516 71 66 0.0 2.0 0.00 0.00 0.00 100 1018.3
20170226114215 71 5 0.0 2.0 0.00 0.00 0.00 100 1018.3
20170226113915 71 344 0.0 1.0 0.00 0.00 0.00 100 1018.2
20170226113615 71 8 0.0 3.0 0.00 0.00 0.00 100 1018.2
20170226113315 71 32 0.0 3.0 0.00 0.00 0.00 100 1018.2
20170226113016 71 127 0.0 1.0 0.00 0.00 0.00 100 1018.2
20170226112715 71 36 0.0 1.0 0.00 0.00 0.00 100 1018.1
20170226112416 71 43 0.0 0.0 0.00 0.00 0.00 100 1018.1
20170226112115 71 43 0.0 0.0 0.00 0.00 0.00 100 1018.1
20170226111816 71 43 0.0 0.0 0.00 0.00 0.00 100 1018.1
20170226111516 71 43 0.0 1.0 0.00 0.00 0.00 100 1018.0
20170226111215 71 43 0.0 1.0 0.00 0.00 0.00 100 1018.0
20170226110916 71 42 0.0 2.0 0.00 0.00 0.00 100 1017.9
20170226110615 72 42 0.0 5.0 0.00 0.00 0.00 100 1017.9
20170226110316 71 74 0.0 5.0 0.00 0.00 0.00 100 1017.9
20170226110016 71 47 1.0 3.0 0.00 0.00 0.00 100 1017.9
20170226105716 71 32 0.0 3.0 0.00 0.00 0.00 100 1017.8
20170226105416 72 32 0.0 6.0 0.00 0.00 0.00 100 1017.7
20170226105116 72 98 1.0 4.0 0.00 0.00 0.00 100 1017.7
20170226104817 72 313 0.0 4.0 0.00 0.00 0.00 100 1017.7
20170226104516 71 85 0.0 4.0 0.00 0.00 0.00 100 1017.7
20170226104216 72 78 0.0 4.0 0.00 0.00 0.00 100 1017.7
20170226103916 71 60 0.0 3.0 0.00 0.00 0.00 100 1017.6
20170226103615 71 43 1.0 5.0 0.00 0.00 0.00 100 1017.5
20170226103315 71 12 0.0 5.0 0.00 0.00 0.00 100 1017.5
20170226103016 71 66 0.0 5.0 0.00 0.00 0.00 100 1017.5
20170226102716 71 5 3.0 5.0 0.00 0.00 0.00 100 1017.5
20170226102415 72 14 0.0 2.0 0.00 0.00 0.00 100 1017.4
20170226102116 71 57 0.0 5.0 0.00 0.00 0.00 100 1017.5
20170226101816 71 30 0.0 5.0 0.00 0.00 0.00 100 1017.5
20170226101515 72 47 1.0 3.0 0.00 0.00 0.00 100 1017.4
20170226101216 71 354 0.0 3.0 0.00 0.00 0.00 100 1017.4
20170226100916 71 354 0.0 5.0 0.00 0.00 0.00 100 1017.4
20170226100616 71 12 2.0 3.0 0.00 0.00 0.00 100 1017.4
20170226100316 71 28 0.0 3.0 0.00 0.00 0.00 100 1017.3
20170226100016 71 25 0.0 0.0 0.00 0.00 0.00 100 1017.2
20170226095715 71 57 0.0 0.0 0.00 0.00 0.00 100 1017.2
20170226095416 71 7 0.0 3.0 0.00 0.00 0.00 100 1017.2
20170226095115 71 7 0.0 3.0 0.00 0.00 0.00 100 1017.2
20170226094816 71 26 0.0 3.0 0.00 0.00 0.00 100 1017.1
20170226094515 71 8 0.0 4.0 0.00 0.00 0.00 100 1017.1
20170226094216 71 8 0.0 4.0 0.00 0.00 0.00 100 1017.1
20170226093916 71 12 0.0 3.0 0.00 0.00 0.00 100 1017.0
20170226093615 71 15 1.0 1.0 0.00 0.00 0.00 100 1017.0
20170226093315 71 59 0.0 1.0 0.00 0.00 0.00 100 1017.0
20170226093016 71 347 0.0 2.0 0.00 0.00 0.00 100 1017.0
20170226092716 71 1 0.0 2.0 0.00 0.00 0.00 100 1017.0
20170226092416 71 1 0.0 1.0 0.00 0.00 0.00 100 1017.0
20170226092115 71 25 0.0 0.0 0.00 0.00 0.00 100 1017.0
20170226091816 71 331 0.0 0.0 0.00 0.00 0.00 100 1016.9
20170226091517 71 331 0.0 1.0 0.00 0.00 0.00 100 1017.0
20170226091215 71 331 0.0 1.0 0.00 0.00 0.00 100 1016.9
20170226090915 71 331 0.0 2.0 0.00 0.00 0.00 100 1016.9
20170226090615 71 5 0.0 0.0 0.00 0.00 0.00 100 1016.9
20170226090315 71 5 0.0 0.0 0.00 0.00 0.00 100 1016.9
20170226090016 71 19 0.0 0.0 0.00 0.00 0.00 100 1016.8
20170226085715 71 19 0.0 0.0 0.00 0.00 0.00 100 1016.8
20170226085416 71 19 0.0 4.0 0.00 0.00 0.00 100 1016.8
20170226085115 71 30 3.0 1.0 0.00 0.00 0.00 100 1016.9
20170226084816 71 18 0.0 1.0 0.00 0.00 0.00 100 1016.8
20170226084516 71 18 0.0 1.0 0.00 0.00 0.00 100 1016.8
20170226084216 71 18 0.0 1.0 0.00 0.00 0.00 100 1016.7
20170226083916 71 7 0.0 0.0 0.00 0.00 0.00 100 1016.8
20170226083616 71 8 0.0 0.0 0.00 0.00 0.00 100 1016.7
20170226083315 71 28 0.0 0.0 0.00 0.00 0.00 100 1016.7
20170226083016 71 50 0.0 0.0 0.00 0.00 0.00 100 1016.7
20170226082716 71 50 0.0 0.0 0.00 0.00 0.00 100 1016.7
20170226082416 71 50 0.0 0.0 0.00 0.00 0.00 100 1016.7
20170226082116 71 50 0.0 0.0 0.00 0.00 0.00 100 1016.7
20170226081816 71 50 0.0 0.0 0.00 0.00 0.00 100 1016.7
20170226081515 71 50 0.0 0.0 0.00 0.00 0.00 100 1016.7
20170226081216 71 50 0.0 0.0 0.00 0.00 0.00 100 1016.7
20170226080915 71 50 0.0 0.0 0.00 0.00 0.00 100 1016.7
20170226080616 71 50 0.0 0.0 0.00 0.00 0.00 100 1016.7
20170226080316 71 50 0.0 0.0 0.00 0.00 0.00 100 1016.7
20170226080015 71 50 0.0 0.0 0.00 0.00 0.00 100 1016.6
20170226075716 71 50 0.0 0.0 0.00 0.00 0.00 100 1016.6
20170226075416 71 50 0.0 0.0 0.00 0.00 0.00 100 1016.6
20170226075115 71 50 0.0 1.0 0.00 0.00 0.00 100 1016.6
20170226074816 71 50 0.0 1.0 0.00 0.00 0.00 100 1016.6
20170226074515 71 50 0.0 4.0 0.00 0.00 0.00 100 1016.6
20170226074216 71 28 0.0 4.0 0.00 0.00 0.00 100 1016.6
20170226073915 71 28 0.0 5.0 0.00 0.00 0.00 100 1016.6
20170226073616 71 0 1.0 0.0 0.00 0.00 0.00 100 1016.7
20170226073315 71 348 0.0 0.0 0.00 0.00 0.00 100 1016.7
20170226073016 71 350 0.0 0.0 0.00 0.00 0.00 100 1016.7
20170226072716 71 350 0.0 0.0 0.00 0.00 0.00 100 1016.6
20170226072416 71 350 0.0 0.0 0.00 0.00 0.00 100 1016.6
20170226072115 71 350 0.0 0.0 0.00 0.00 0.00 100 1016.6
20170226071816 71 350 0.0 0.0 0.00 0.00 0.00 100 1016.6
20170226071516 71 350 0.0 0.0 0.00 0.00 0.00 100 1016.6
20170226071215 71 350 0.0 0.0 0.00 0.00 0.00 100 1016.6
20170226070916 71 350 0.0 0.0 0.00 0.00 0.00 100 1016.6
20170226070615 71 350 0.0 0.0 0.00 0.00 0.00 100 1016.7
20170226070315 72 350 0.0 0.0 0.00 0.00 0.00 100 1016.8
20170226070015 71 350 0.0 0.0 0.00 0.00 0.00 100 1016.7
20170226065716 72 350 0.0 0.0 0.00 0.00 0.00 100 1016.8
20170226065416 72 350 0.0 0.0 0.00 0.00 0.00 100 1016.8
20170226065116 72 350 0.0 0.0 0.00 0.00 0.00 100 1016.7
20170226064817 72 350 0.0 0.0 0.00 0.00 0.00 100 1016.7
20170226064516 72 350 0.0 1.0 0.00 0.00 0.00 100 1016.7
20170226064216 72 350 0.0 1.0 0.00 0.00 0.00 100 1016.7
20170226063915 72 350 0.0 0.0 0.00 0.00 0.00 100 1016.7
20170226063616 72 331 0.0 0.0 0.00 0.00 0.00 100 1016.8
20170226063315 72 331 0.0 0.0 0.00 0.00 0.00 100 1016.8
20170226063016 72 331 0.0 0.0 0.00 0.00 0.00 100 1016.8
20170226062416 72 331 0.0 0.0 0.00 0.00 0.00 100 1016.8
20170226062115 72 331 0.0 0.0 0.00 0.00 0.00 100 1016.8
20170226061815 72 331 0.0 0.0 0.00 0.00 0.00 100 1016.8
20170226061515 72 331 0.0 0.0 0.00 0.00 0.00 100 1016.8
20170226061216 72 331 0.0 0.0 0.00 0.00 0.00 100 1016.8
20170226060916 72 331 0.0 0.0 0.00 0.00 0.00 99 1016.7
20170226060616 72 331 0.0 2.0 0.00 0.00 0.00 99 1016.7
20170226060316 72 331 0.0 2.0 0.00 0.00 0.00 99 1016.7
20170226060016 72 323 0.0 1.0 0.00 0.00 0.00 99 1016.6
20170226055716 72 341 0.0 1.0 0.00 0.00 0.00 99 1016.6
20170226055415 72 2 0.0 0.0 0.00 0.00 0.00 99 1016.6
20170226055115 72 2 0.0 0.0 0.00 0.00 0.00 99 1016.5
20170226054816 72 2 0.0 0.0 0.00 0.00 0.00 99 1016.5
20170226054515 72 2 0.0 0.0 0.00 0.00 0.00 99 1016.5
20170226054216 72 2 0.0 0.0 0.00 0.00 0.00 99 1016.4
20170226053916 72 2 0.0 0.0 0.00 0.00 0.00 99 1016.4
20170226053616 72 2 0.0 0.0 0.00 0.00 0.00 99 1016.5
20170226053315 72 2 0.0 0.0 0.00 0.00 0.00 98 1016.4
20170226053015 72 2 0.0 2.0 0.00 0.00 0.00 98 1016.4
20170226052716 73 2 0.0 2.0 0.00 0.00 0.00 98 1016.4
20170226052416 72 60 0.0 1.0 0.00 0.00 0.00 98 1016.4
20170226052115 73 358 0.0 4.0 0.00 0.00 0.00 98 1016.4
20170226051816 73 7 0.0 4.0 0.00 0.00 0.00 98 1016.4
20170226051515 73 11 0.0 5.0 0.00 0.00 0.00 98 1016.4
20170226051217 73 329 2.0 5.0 0.00 0.00 0.00 98 1016.5
20170226050917 73 2 0.0 2.0 0.00 0.00 0.00 98 1016.5
20170226050616 73 4 0.0 4.0 0.00 0.00 0.00 98 1016.6
20170226050316 73 334 0.0 4.0 0.00 0.00 0.00 98 1016.5
20170226050016 73 334 0.0 5.0 0.00 0.00 0.00 98 1016.5
20170226045716 73 323 0.0 5.0 0.00 0.00 0.00 98 1016.5
20170226045416 73 26 0.0 3.0 0.00 0.00 0.00 98 1016.5
20170226045115 73 0 0.0 3.0 0.00 0.00 0.00 98 1016.5
20170226044816 73 22 3.0 3.0 0.00 0.00 0.00 98 1016.5
20170226044515 73 341 2.0 3.0 0.00 0.00 0.00 98 1016.5
20170226044216 73 26 0.0 3.0 0.00 0.00 0.00 98 1016.5
20170226043915 73 7 0.0 4.0 0.00 0.00 0.00 97 1016.5
20170226043615 73 52 1.0 5.0 0.00 0.00 0.00 97 1016.5
20170226043315 73 74 0.0 5.0 0.00 0.00 0.00 97 1016.5
20170226043015 73 4 3.0 4.0 0.00 0.00 0.00 97 1016.5